Location: Deuil
(48.9767°N, 2.3272°E)
Time: 02:07:19
(UTC+00:00)

Cosmos 2360 Rocket - Pass Details

Date: 23 May 2022
Orbit: 832 x 846 km, 71.0° (Epoch: 03 July)

Event Time Altitude Azimuth Distance (km) Brightness Sun altitude
Rises 02:08:44 0° 273° (W) 3,388 5.0 -13.7°
Reaches altitude 10° 02:12:31 10° 299° (WNW) 2,460 4.6 -13.3°
Maximum altitude 02:15:22 14° 329° (NNW) 2,197 4.7 -13.1°
Drops below altitude 10° 02:18:14 10° 0° (N) 2,469 5.5 -12.8°
Sets 02:22:03 0° 26° (NNE) 3,411 7.2 -12.4°
